Location: Asheville, NC
(35.6000°N, 82.5500°W)
Time: 11:48:11
(UTC-05:00)

Vanguard 3 - All Passes

Search period start: 20 January 2018 00:00
Search period end: 30 January 2018 00:00
Orbit: 508 x 3264 km, 33.4° (Epoch: 19 January)

Date Brightness Start Highest point End Pass type
(mag) Time Alt. Az. Time Alt. Az. Time Alt. Az.
20 Jan - 01:49:39 10° WSW 02:04:46 78° SSE 02:25:01 10° E visible
20 Jan - 04:03:44 10° W 04:22:18 81° S 04:41:19 10° ESE visible
20 Jan - 06:19:49 10° W 06:39:06 58° SSW 06:54:40 10° SE visible
20 Jan - 08:39:20 10° W 08:52:47 25° SW 09:03:15 10° S daylight
20 Jan - 22:26:19 10° SSW 22:35:13 31° SE 22:48:33 10° E night (unlit)
21 Jan - 00:35:40 10° WSW 00:48:24 68° SSE 01:07:43 10° E visible
21 Jan - 02:48:25 10° W 03:04:59 84° S 03:25:09 10° E visible
21 Jan - 05:03:19 10° W 05:22:30 71° SSW 05:40:18 10° ESE visible
21 Jan - 07:20:32 10° W 07:37:53 40° SW 07:51:33 10° SSE daylight
21 Jan - 21:16:15 10° SSE 21:21:39 16° SE 21:28:32 10° E night (unlit)
21 Jan - 23:22:31 10° SW 23:33:02 52° SSE 23:49:57 10° E visible
22 Jan - 01:33:49 10° WSW 01:48:01 80° S 02:08:12 10° E visible
22 Jan - 03:47:33 10° W 04:05:22 80° SSW 04:24:53 10° ESE visible
22 Jan - 06:03:15 10° W 06:22:03 54° SSW 06:38:19 10° SE visible
22 Jan - 08:23:04 10° W 08:35:51 22° SW 08:46:23 10° S daylight
22 Jan - 22:10:22 10° SSW 22:18:42 34° SE 22:31:44 10° E night (unlit)
23 Jan - 00:19:56 10° WSW 00:31:49 71° SSE 00:50:44 10° E visible
23 Jan - 02:32:30 10° W 02:48:10 83° S 03:08:29 10° E visible
23 Jan - 04:46:58 10° W 05:05:27 67° SSW 05:23:52 10° SE visible
23 Jan - 07:04:00 10° W 07:20:49 36° SW 07:34:57 10° SSE visible
23 Jan - 20:59:52 10° SSE 21:05:14 17° SE 21:12:23 10° E visible
23 Jan - 23:06:49 10° SW 23:16:33 55° SSE 23:32:56 10° E night (unlit)
24 Jan - 01:18:04 10° WSW 01:31:23 82° S 01:51:20 10° E visible
24 Jan - 03:31:29 10° W 03:48:26 77° SSW 04:08:17 10° ESE visible
24 Jan - 05:46:48 10° W 06:04:58 50° SSW 06:21:45 10° SE visible
24 Jan - 08:07:05 10° W 08:18:53 20° SW 08:29:08 10° S daylight
24 Jan - 21:54:34 10° SSW 22:02:19 36° SE 22:14:53 10° E visible
25 Jan - 00:04:19 10° WSW 00:15:21 73° SSE 00:33:42 10° E visible
25 Jan - 02:16:40 10° W 02:31:26 82° S 02:51:43 10° ESE visible
25 Jan - 04:30:44 10° W 04:48:25 64° SSW 05:07:14 10° SE visible
25 Jan - 06:47:41 10° W 07:03:44 33° SW 07:18:05 10° SSE visible
25 Jan - 20:43:43 10° S 20:48:56 19° SE 20:56:08 10° E visible
25 Jan - 22:51:13 10° SW 23:00:13 58° SSE 23:15:53 10° E night (unlit)
26 Jan - 01:02:26 10° W 01:14:51 82° S 01:34:23 10° E visible
26 Jan - 03:15:30 10° W 03:31:32 74° SSW 03:51:33 10° ESE visible
26 Jan - 05:30:31 10° W 05:47:51 46° SW 06:04:57 10° SSE visible
26 Jan - 07:51:33 10° W 08:01:56 17° SW 08:11:25 10° SSW daylight
26 Jan - 21:38:53 10° SSW 21:46:04 39° SE 21:58:03 10° E visible
26 Jan - 23:48:47 10° WSW 23:59:00 76° SSE 00:16:38 10° E visible
27 Jan - 02:00:55 10° W 02:14:45 81° S 02:34:51 10° ESE visible
27 Jan - 04:14:38 10° W 04:31:23 59° SSW 04:50:25 10° SE visible
27 Jan - 06:31:35 10° W 06:46:39 29° SW 07:00:55 10° S visible
27 Jan - 20:27:46 10° S 20:32:45 20° SE 20:39:50 10° E visible
27 Jan - 22:35:44 10° SW 22:44:02 61° SSE 22:58:52 10° E night (unlit)
28 Jan - 00:46:52 10° W 00:58:25 82° S 01:17:22 10° E visible
28 Jan - 02:59:37 10° W 03:14:41 70° SSW 03:34:40 10° ESE visible
28 Jan - 05:14:24 10° W 05:30:45 42° SW 05:47:56 10° SSE visible
28 Jan - 07:36:42 10° WSW 07:45:00 14° SW 07:52:55 10° SSW daylight
28 Jan - 21:23:20 10° SW 21:29:57 41° SE 21:41:15 10° E visible
28 Jan - 23:33:21 10° WSW 23:42:47 78° S 23:59:34 10° E visible
29 Jan - 01:45:14 10° W 01:58:09 78° S 02:17:50 10° ESE visible
29 Jan - 03:58:39 10° W 04:14:24 55° SSW 04:33:23 10° SE visible
29 Jan - 06:15:45 10° W 06:29:37 26° SW 06:43:25 10° S visible
29 Jan - 20:11:57 10° S 20:16:42 22° SE 20:23:33 10° E visible
29 Jan - 22:20:19 10° WSW 22:27:57 65° SSE 22:41:52 10° E visible
